Tracking 25710 objects as of 5-Jul-2022
HD Live streaming from Space Station
objects crossing your sky now

FENGYUN 1C DEB

Track FENGYUN 1C DEB now!
10-day predictions


NORAD ID: 38715
Int'l Code: 1999-025ETG
Perigee: 765.6 km
Apogee: 995.2 km
Inclination: 98.2 °
Period: 102.4 minutes
Semi major axis: 7251 km
RCS: 0.0075 m2 (small)
Launch date: May 10, 1999
Source: People's Republic of China (PRC)
Launch site: Taiyaun Space Center, China (TSC)

Note: This is SATELLITE DEBRIS
aabbcc
Your satellite tracking list
Your tracking list is empty




NASA's NSSDC Master Catalog

Two Line Element Set (TLE):
1 38715U 99025ETG 22183.27977312  .00001302  00000-0  73096-3 0  9997
2 38715  98.1743  24.9803 0158304 356.0105   3.9792 14.05950952752740
Source of the keplerian elements: AFSPC